Stations météo

réclame
Mon MeteoGroup
Angelholm, Suède (2607): Température de l'air & dewpoint: 14.11.2017 01:00:00 - 20.11.2017 01:00:00 (CET)Angelholm, Suède (2607): Vitesse du vent: 14.11.2017 01:00:00 - 20.11.2017 01:00:00 (CET)Angelholm, Suède (2607): Direction du vent: 14.11.2017 01:00:00 - 20.11.2017 01:00:00 (CET)Angelholm, Suède (2607): reduced air pressure: 14.11.2017 01:00:00 - 20.11.2017 01:00:00 (CET)Angelholm, Suède (2607): visibility: 14.11.2017 01:00:00 - 20.11.2017 01:00:00 (CET)
Date & Time tt [°C] td [°C] ff [km/h] ff [knt] dd ppp [hPa] vv [km]
20.11.2017 01:00:00 - - - - - - -
20.11.2017 00:00:00 -0,3 -19,5 11 6 WNW 1007,5 10
19.11.2017 23:00:00 0,1 -19,7 9 5 WNW 1007,4 10
19.11.2017 22:00:00 0,4 -17,8 8 4 NNW 1007,4 10
19.11.2017 21:00:00 1,1 -15,4 13 7 NW 1006,9 10
19.11.2017 20:00:00 1,0 -15,1 18 10 NNW 1005,8 10
19.11.2017 19:00:00 1,3 -15,2 31 17 NNW 1004,8 10
19.11.2017 18:00:00 2,3 -14,8 24 13 NW 1003,7 10
19.11.2017 17:00:00 2,7 -14,5 24 13 NNW 1002,3 10
19.11.2017 16:00:00 2,7 -14,5 28 15 NNW 1000,5 10
19.11.2017 15:00:00 3,1 -14,6 29 16 NNW 998,7 10
19.11.2017 14:00:00 2,2 -15,3 26 14 NW 997,0 7
19.11.2017 13:00:00 3,5 -15,2 41 22 NW 996,1 10
19.11.2017 12:00:00 3,8 -14,9 37 20 NW 995,9 10
19.11.2017 11:00:00 4,2 -14,6 37 20 NW 995,3 10
19.11.2017 10:00:00 5,1 -12,8 37 20 NW 994,5 10
19.11.2017 09:00:00 4,0 -12,9 13 7 NW 993,8 10
19.11.2017 08:00:00 5,4 -13,6 22 12 NW 993,1 10
19.11.2017 07:00:00 6,4 -12,7 24 13 W 992,3 10
19.11.2017 06:00:00 5,8 -12,7 26 14 W 992,6 10
19.11.2017 05:00:00 6,9 -11,3 29 16 W 992,9 10
19.11.2017 04:00:00 7,1 -12,1 31 17 W 993,4 10
19.11.2017 03:00:00 6,6 -12,0 29 16 W 994,4 10
19.11.2017 02:00:00 6,9 -12,3 34 18 W 994,8 10
19.11.2017 01:00:00 7,1 -12,7 35 19 W 995,6 10
19.11.2017 00:00:00 7,1 -12,7 35 19 W 996,4 10
18.11.2017 23:00:00 6,9 -13,4 35 19 W 997,0 10
18.11.2017 22:00:00 6,6 -13,1 35 19 WSW 997,4 10
18.11.2017 21:00:00 6,5 -12,1 35 19 W 997,8 10
18.11.2017 20:00:00 6,7 3,1 28 15 W 998,3 10
18.11.2017 19:00:00 6,6 2,9 29 16 W 998,8 10
18.11.2017 18:00:00 6,4 2,7 28 15 W 999,5 10
18.11.2017 17:00:00 6,2 1,9 28 15 W 1000,0 10
18.11.2017 16:00:00 5,8 1,7 34 18 W 1000,3 10
18.11.2017 15:00:00 5,6 1,5 29 16 W 1000,3 10
18.11.2017 14:00:00 5,8 2,3 29 16 W 1000,5 10
18.11.2017 13:00:00 4,1 1,5 37 20 W 1000,9 10
18.11.2017 12:00:00 6,5 2,8 29 16 W 1000,7 10
18.11.2017 11:00:00 6,1 2,9 24 13 WSW 1001,4 10
18.11.2017 10:00:00 6,2 4,4 22 12 WSW 1002,2 10
18.11.2017 09:00:00 5,3 4,0 28 15 SW 1002,8 8
18.11.2017 08:00:00 6,8 4,1 26 14 SSW 1003,2 10
18.11.2017 07:00:00 6,8 4,1 26 14 SSW 1004,8 10
18.11.2017 06:00:00 6,9 3,9 26 14 SSW 1006,3 10
18.11.2017 05:00:00 6,7 3,7 26 14 SSW 1007,3 10
18.11.2017 04:00:00 6,6 3,6 28 15 SSW 1008,8 10
18.11.2017 03:00:00 6,5 3,6 26 14 SW 1010,0 10
18.11.2017 02:00:00 6,7 3,7 28 15 SW 1011,2 10
18.11.2017 01:00:00 6,6 3,7 28 15 SW 1012,3 10
18.11.2017 00:00:00 6,0 3,3 24 13 SSW 1013,1 10
17.11.2017 23:00:00 6,2 3,5 28 15 SW 1013,7 10
17.11.2017 22:00:00 6,0 3,5 28 15 SW 1014,6 10
17.11.2017 21:00:00 6,0 3,5 22 12 SW 1015,4 10
17.11.2017 20:00:00 6,3 3,6 22 12 SSW 1016,1 10
17.11.2017 19:00:00 6,5 3,8 21 11 SW 1016,7 10
17.11.2017 18:00:00 7,0 3,6 21 11 WSW 1017,4 10
17.11.2017 17:00:00 7,6 3,6 24 13 WSW 1017,7 10
17.11.2017 16:00:00 7,3 3,9 21 11 WSW 1018,1 10
17.11.2017 15:00:00 7,6 3,5 21 11 W 1018,3 10
17.11.2017 14:00:00 7,9 3,2 24 13 W 1018,7 10
17.11.2017 13:00:00 8,1 3,7 24 13 W 1019,2 10
17.11.2017 12:00:00 8,1 3,9 26 14 W 1019,2 10
17.11.2017 11:00:00 8,0 4,0 26 14 W 1019,0 10
17.11.2017 10:00:00 7,6 3,8 29 16 W 1018,4 10
17.11.2017 09:00:00 7,0 3,6 29 16 WNW 1018,2 10
17.11.2017 08:00:00 6,8 3,4 29 16 W 1018,0 10
17.11.2017 07:00:00 6,6 3,6 28 15 W 1017,5 10
17.11.2017 06:00:00 6,8 3,1 28 15 W 1017,2 10
17.11.2017 05:00:00 6,7 3,1 31 17 W 1016,7 10
17.11.2017 04:00:00 7,1 3,0 29 16 W 1016,3 10
17.11.2017 03:00:00 7,4 3,4 31 17 W 1015,9 10
17.11.2017 02:00:00 7,2 3,8 29 16 W 1015,5 10
17.11.2017 01:00:00 7,5 4,3 31 17 W 1015,0 10
17.11.2017 00:00:00 6,9 4,2 26 14 W 1014,8 10
16.11.2017 23:00:00 6,3 4,6 24 13 SW 1014,0 4,2
16.11.2017 22:00:00 8,8 7,7 21 11 SSW 1013,4 6
16.11.2017 21:00:00 8,7 7,5 21 11 S 1013,9 4,8
16.11.2017 20:00:00 8,5 7,3 18 10 S 1014,6 6
16.11.2017 19:00:00 8,3 7,2 18 10 S 1015,1 7
16.11.2017 18:00:00 8,3 7,2 18 10 S 1015,8 4,4
16.11.2017 17:00:00 8,1 7,0 21 11 SSE 1016,3 4,9
16.11.2017 16:00:00 7,9 6,8 18 10 SSE 1017,1 5
16.11.2017 15:00:00 8,0 6,9 21 11 SSE 1018,3 6
16.11.2017 14:00:00 7,9 6,5 16 9 SSE 1019,1 10
16.11.2017 13:00:00 7,1 6,5 13 7 SE 1019,9 7
16.11.2017 12:00:00 6,1 5,7 13 7 ESE 1020,8 1,8
16.11.2017 11:00:00 3,6 3,2 15 8 SE 1021,9 0,2
16.11.2017 10:00:00 3,1 2,5 11 6 SE 1022,4 0,1
16.11.2017 09:00:00 2,9 2,3 11 6 SE 1022,6 0,1
16.11.2017 08:00:00 3,0 2,4 9 5 SE 1022,7 0,1
16.11.2017 07:00:00 3,0 2,4 9 5 ESE 1022,7 0,1
16.11.2017 06:00:00 2,8 2,2 8 4 SSE 1022,8 1,5
16.11.2017 05:00:00 2,0 1,4 5 3 SSE 1023,0 1,3
16.11.2017 04:00:00 1,8 1,2 8 4 ESE 1023,0 1,3
16.11.2017 03:00:00 1,2 0,3 8 4 E 1023,1 2,9
16.11.2017 02:00:00 1,6 0,7 2 1 ESE 1023,1 1,7
16.11.2017 01:00:00 1,9 1,0 5 3 ESE 1022,9 5
16.11.2017 00:00:00 3,2 1,9 9 5 W 1023,2 10
15.11.2017 23:00:00 6,7 4,5 15 8 W 1022,8 10
15.11.2017 22:00:00 7,0 4,8 15 8 W 1022,5 10
15.11.2017 21:00:00 7,2 5,3 18 10 W 1022,3 10
15.11.2017 20:00:00 7,5 5,6 16 9 W 1021,8 10
15.11.2017 19:00:00 7,5 5,0 18 10 W 1021,4 10
15.11.2017 18:00:00 7,9 5,0 21 11 W 1021,0 10
15.11.2017 17:00:00 8,0 6,0 18 10 W 1020,5 10
15.11.2017 16:00:00 8,2 6,2 21 11 W 1020,4 10
15.11.2017 15:00:00 8,7 6,3 24 13 W 1020,0 10
15.11.2017 14:00:00 9,3 6,6 24 13 W 1019,6 10
15.11.2017 13:00:00 9,2 7,0 24 13 WSW 1019,6 10
15.11.2017 12:00:00 9,2 6,5 22 12 WSW 1019,7 10
15.11.2017 11:00:00 8,2 6,3 18 10 SSW 1019,5 10
15.11.2017 10:00:00 7,7 6,2 16 9 SSW 1019,1 10
15.11.2017 09:00:00 7,1 6,0 15 8 SW 1018,7 10
15.11.2017 08:00:00 6,9 5,5 15 8 WSW 1018,3 10
15.11.2017 07:00:00 7,5 5,8 16 9 W 1017,8 10
15.11.2017 06:00:00 7,7 5,8 16 9 W 1017,7 10
15.11.2017 05:00:00 7,6 5,6 21 11 W 1017,4 10
15.11.2017 04:00:00 7,8 5,9 18 10 W 1017,3 10
15.11.2017 03:00:00 8,0 6,0 21 11 W 1017,3 10
15.11.2017 02:00:00 7,7 6,0 16 9 WSW 1017,0 10
15.11.2017 01:00:00 7,4 6,0 18 10 W 1016,4 10
15.11.2017 00:00:00 7,1 5,2 16 9 W 1016,2 10
14.11.2017 23:00:00 4,6 3,4 8 4 W 1015,7 10
14.11.2017 22:00:00 5,4 3,6 21 11 WNW 1015,2 10
14.11.2017 21:00:00 6,5 4,2 26 14 WNW 1014,7 10
14.11.2017 20:00:00 7,2 4,2 28 15 WNW 1013,9 10
14.11.2017 19:00:00 7,4 4,7 39 21 WNW 1012,8 10
14.11.2017 18:00:00 7,6 5,1 35 19 W 1011,4 10
14.11.2017 17:00:00 8,0 6,6 35 19 W 1010,1 4,8
14.11.2017 16:00:00 8,7 6,7 28 15 WSW 1009,2 6
14.11.2017 15:00:00 8,1 6,7 28 15 SW 1008,9 10
14.11.2017 14:00:00 6,2 5,2 21 11 S 1009,1 3,9
14.11.2017 13:00:00 5,4 4,2 15 8 SSE 1010,2 10
14.11.2017 12:00:00 5,1 3,4 21 11 S 1011,4 10
14.11.2017 11:00:00 4,5 3,2 15 8 S 1012,7 10
14.11.2017 10:00:00 4,8 3,1 16 9 SSW 1013,6 10
14.11.2017 09:00:00 4,4 3,2 15 8 SSW 1013,9 10
14.11.2017 08:00:00 1,1 0,2 13 7 ESE 1014,2 10
14.11.2017 07:00:00 -0,5 -1,2 5 3 SE 1014,3 10
14.11.2017 06:00:00 -2,3 -3,1 9 5 ESE 1014,3 9
14.11.2017 05:00:00 -1,2 -2,0 4 2 SE 1014,7 10
14.11.2017 04:00:00 -1,3 -2,1 5 3 ESE 1014,9 10
14.11.2017 03:00:00 -2,5 -3,3 5 3 ESE 1015,4 10
14.11.2017 02:00:00 -2,5 -3,3 5 3 ESE 1015,7 10
14.11.2017 01:00:00 -2,5 -3,3 5 3 E 1015,9 10

tt = Température de l'air
td = dewpoint
ff = Vitesse du vent
dd = Direction du vent
ppp = reduced air pressure
vv = visibility

stations d'obs. à proximité